User: anonymous   Login
Location: Unspecified
(0.0000°N, 0.0000°E)
Time: 06:06:31
(UTC+02:00)
Language:

Cosmos 773 Rocket - Orbit

View from above orbital plane
View from above orbital plane
View from above satellite
View from above satellite

Ground track
Ground track

The orbit data is extracted from the following two-line orbital elements,

1 08344U 75094B   15210.47919791  .00000059  00000-0  27459-4 0  9995
2 08344 074.0590 314.5763 0021537 025.9804 334.2426 14.38981721 86621
Epoch (UTC): 29 July 2015 11:30:02
Eccentricity: 0.0021537
inclination: 74.0590°
perigee height: 746 km
apogee height: 777 km
right ascension of ascending node: 314.5763°
argument of perigee: 25.9804°
revolutions per day: 14.38981721
mean anomaly at epoch: 334.2426°
orbit number at epoch: 8662

The dashed part of the orbit path shows where the satellite is in the earth's shadow,  

DLR